Weather in Petuhovo

Russia / Kurgan Oblast     55°03′54″N   67°53′14″E
temp.,
°C
wind,
m/s
gust,
m/s
humid.,
%
clouds,
%
prec.,
mm/h
press.,
hPa
HPBL,
m
23 april, fri
fri2323:00+5se61345100 0.0 1039337
02:00+3sse612569 0.0 1039267
05:00+2sse5116289 0.0 1039264
08:00+4s61154100 0.0 1040395
11:00+8s7941100 0.0 1039609
14:00+11s6737100 0.0 10381140
17:00+11s6730100 0.0 10371400
20:00+8sse4842100 0.0 1037139
24 april, sat
sat2423:00+5sse4950100 0.0 1035170
02:00+4sse41153100 0.0 1034240
05:00+4sse51155100 0.0 1033283
08:00+5sse61151100 0.0 1032399
11:00+6sse6945100 0.1 1031575
14:00+8sse7940100 0.0 1029887
17:00+8se6941100 0.1 1028968
20:00+7se61246100 0.0 1027395
25 april, sun
sun2523:00+6se61350100 0.0 1025415
02:00+5se51255100 0.0 1023342
05:00+4se51060100 0.0 1022248
08:00+7se711487 0.0 1020452
11:00+12sse8935100 0.0 10181193
14:00+15s892890 0.0 10172181
17:00+13ssw574585 0.0 10171556
20:00+9ssw356847 0.0 101785
26 april, mon
mon2623:00+9s476886 0.0 1017170
02:00+8ssw51178100 0.1 1016269
05:00+7wsw5118778 0.1 1017326
08:00+9wsw610655 0.0 1018723
11:00+12wsw813345 0.0 10182187
14:00+13w91328100 0.0 10193000
17:00+13w8132946 0.0 10192858
20:00+10w4938100 0.0 1021227
27 april, tue
tue2723:00+8wsw2244100 0.0 102222
02:00+7s3346100 0.0 102132
05:00+7s51150100 0.0 1020276
08:00+6se61284100 2.4 1019573
11:00+7sse81883100 4.1 1014554
14:00+13sse81664100 0.5 1008599
17:00+22ssw101729100 0.5 10031340
20:00+15nw71257100 0.0 1003307